Florala, AL

2:17 PM CDT on September 19, 2017 (GMT -0500)
Florala

Weather History for K0J4 - November, 2013

Change the Weather History Date:

Friday, November 1, 2013

  Actual Average (KCEW) Record (KCEW)
Temperature  
Mean Temperature 68 °F -  
Max Temperature 73 °F 77 °F 89 °F (2016)
Min Temperature 60 °F 50 °F 27 °F (1993)
Cooling Degree Days 2    
Growing Degree Days 18 (Base 50)    
Moisture  
Dew Point 67 °F    
Average Humidity 93    
Maximum Humidity 100    
Minimum Humidity 88    
Precipitation  
Precipitation 0.32 in - - ()
Sea Level Pressure  
Sea Level Pressure 29.86 in    
Wind  
Wind Speed 5 mph (SW)    
Max Wind Speed 10 mph    
Max Gust Speed -    
Visibility 6 miles    
Events Fog , Rain    
Averages and records for this station are not official NWS values.
T = Trace of Precipitation, MM = Missing Value Source: NWS Daily Summary

Daily Weather History Graph

Daily Weather History Graph

Search for Another Location

Airport or City:

Trip Planner

Search our weather history database for the weather conditions in past years. The results will help you decide how hot, cold, wet, or windy it might be!

Date:

Astronomy

Nov. 01, 2013 Rise Set
Actual Time 7:00 AM CDT 5:56 PM CDT
Civil Twilight 6:35 AM CDT 6:21 PM CDT
Nautical Twilight 6:07 AM CDT 6:50 PM CDT
Astronomical Twilight 5:38 AM CDT 7:18 PM CDT
Moon 4:59 AM CDT (11/1) 4:43 PM CDT (11/1)
Length of Visible Light 11h 45m
Length of Day
10h 55m
Waning Crescent, 4% of the Moon is Illuminated
Nov 1
Waning Crescent
Nov 3
New
Nov 9
First Quarter
Nov 17
Full
Nov 25
Last Quarter

Hourly Weather History & Observations

Time (CDT) Temp. Dew Point Humidity Pressure Visibility Wind Dir Wind Speed Gust Speed Precip Events Conditions
12:58 AM 72.0 °F 69.1 °F 91% 29.88 in 10.0 mi South 6.9 mph - N/A   Clear
1:58 AM 73.0 °F 70.0 °F 90% 29.88 in 10.0 mi SSW 10.4 mph - 0.00 in   Scattered Clouds
2:58 AM 73.0 °F 71.1 °F 93% 29.84 in 9.0 mi South 9.2 mph - 0.02 in   Mostly Cloudy
3:24 AM 73.4 °F 71.6 °F 94% 29.85 in 9.0 mi SW 5.8 mph - 0.00 in   Scattered Clouds
3:45 AM 73.4 °F 71.6 °F 94% 29.85 in 8.0 mi SSW 5.8 mph - 0.00 in   Mostly Cloudy
3:58 AM 73.0 °F 71.1 °F 93% 29.83 in 8.0 mi SSW 5.8 mph - 0.00 in   Mostly Cloudy
4:09 AM 73.4 °F 71.6 °F 94% 29.84 in 7.0 mi SSW 4.6 mph - N/A   Scattered Clouds
4:21 AM 73.4 °F 71.6 °F 94% 29.84 in 7.0 mi SW 5.8 mph - N/A   Mostly Cloudy
4:46 AM 73.4 °F 71.6 °F 94% 29.84 in 8.0 mi SSW 6.9 mph - N/A   Scattered Clouds
4:58 AM 73.0 °F 71.1 °F 93% 29.83 in 7.0 mi SSW 6.9 mph - N/A   Scattered Clouds
5:58 AM 73.9 °F 72.0 °F 93% 29.83 in 8.0 mi SSW 6.9 mph - N/A   Overcast
6:03 AM 73.4 °F 71.6 °F 94% 29.84 in 8.0 mi SSW 6.9 mph - N/A   Overcast
6:18 AM 73.4 °F 71.6 °F 94% 29.84 in 7.0 mi SSW 6.9 mph - N/A   Overcast
6:31 AM 73.4 °F 71.6 °F 94% 29.84 in 7.0 mi SSW 9.2 mph - N/A   Overcast
6:39 AM 73.4 °F 71.6 °F 94% 29.84 in 8.0 mi SSW 9.2 mph - N/A   Overcast
6:58 AM 73.9 °F 72.0 °F 93% 29.84 in 6.0 mi SSW 6.9 mph - 0.00 in Rain Light Rain
7:05 AM 73.4 °F 71.6 °F 94% 29.85 in 4.0 mi Variable 3.5 mph - 0.00 in Rain Light Rain
7:09 AM 73.4 °F 71.6 °F 94% 29.85 in 4.0 mi Calm Calm - 0.01 in Rain Light Rain
7:14 AM 73.4 °F 71.6 °F 94% 29.85 in 4.0 mi Variable 4.6 mph - 0.01 in Rain Light Rain
7:23 AM 73.4 °F 71.6 °F 94% 29.85 in 2.5 mi SW 8.1 mph - 0.08 in Rain Heavy Rain
7:33 AM 73.4 °F 71.6 °F 94% 29.85 in 4.0 mi SW 8.1 mph - 0.08 in Rain Light Rain
7:58 AM 73.0 °F 70.0 °F 90% 29.85 in 10.0 mi SW 6.9 mph - 0.08 in   Overcast
8:39 AM 73.4 °F 69.8 °F 88% 29.86 in 1.8 mi SW 5.8 mph - 0.04 in Rain Heavy Rain
8:58 AM 72.0 °F 70.0 °F 93% 29.86 in 1.2 mi Variable 3.5 mph - 0.13 in Rain Heavy Rain
9:10 AM 71.6 °F 69.8 °F 94% 29.87 in 1.8 mi Calm Calm - 0.03 in Rain Light Rain
9:14 AM 71.6 °F 69.8 °F 94% 29.87 in 3.0 mi Variable 3.5 mph - 0.03 in Rain Light Rain
9:37 AM 71.6 °F 69.8 °F 94% 29.88 in 5.0 mi NW 4.6 mph - 0.03 in Rain Light Rain
9:46 AM 71.6 °F 69.8 °F 94% 29.87 in 10.0 mi Variable 3.5 mph - 0.03 in   Overcast
9:53 AM 71.6 °F 69.8 °F 94% 29.87 in 10.0 mi North 3.5 mph - 0.03 in   Overcast
9:58 AM 72.0 °F 70.0 °F 93% 29.86 in 10.0 mi Variable 5.8 mph - 0.03 in   Overcast
10:36 AM 69.8 °F 68.0 °F 94% 29.88 in 5.0 mi NNW 4.6 mph - 0.00 in Rain Rain
10:40 AM 69.8 °F 68.0 °F 94% 29.87 in 4.0 mi Calm Calm - 0.01 in Rain Light Rain
10:49 AM 69.8 °F 68.0 °F 94% 29.87 in 3.0 mi North 3.5 mph - 0.02 in Rain Light Rain
10:58 AM 70.0 °F 68.0 °F 93% 29.86 in 7.0 mi North 4.6 mph - 0.02 in Rain Light Rain
11:26 AM 69.8 °F 66.2 °F 88% 29.87 in 4.0 mi North 3.5 mph - 0.00 in Rain Light Rain
11:30 AM 69.8 °F 68.0 °F 94% 29.88 in 2.5 mi NNW 3.5 mph - 0.00 in Rain Light Rain
11:38 AM 69.8 °F 66.2 °F 88% 29.88 in 5.0 mi NNW 5.8 mph - 0.00 in Rain Light Rain
11:58 AM 70.0 °F 66.9 °F 90% 29.86 in 10.0 mi North 5.8 mph - 0.00 in   Overcast
12:27 PM 69.8 °F 66.2 °F 88% 29.87 in 10.0 mi North 5.8 mph - N/A   Overcast
12:37 PM 69.8 °F 66.2 °F 88% 29.86 in 10.0 mi Variable 6.9 mph - N/A   Overcast
12:50 PM 68.0 °F 64.4 °F 88% 29.86 in 6.0 mi Variable 4.6 mph - 0.00 in Rain Light Rain
12:58 PM 68.0 °F 64.9 °F 90% 29.85 in 6.0 mi NNW 4.6 mph - 0.00 in Rain Light Rain
1:58 PM 68.0 °F 66.0 °F 93% 29.83 in 6.0 mi Calm Calm - 0.00 in Rain Light Rain
2:58 PM 68.0 °F 64.9 °F 90% 29.81 in 4.0 mi Calm Calm - 0.00 in Rain Light Rain
3:24 PM 68.0 °F 66.2 °F 94% 29.82 in 4.0 mi SSW 3.5 mph - 0.02 in Rain Light Rain
3:30 PM 68.0 °F 66.2 °F 94% 29.83 in 2.0 mi South 4.6 mph - 0.03 in Rain Rain
3:48 PM 68.0 °F 66.2 °F 94% 29.81 in 4.0 mi South 5.8 mph - 0.04 in Rain Light Rain
3:58 PM 69.1 °F 66.0 °F 90% 29.80 in 10.0 mi South 6.9 mph - 0.04 in Rain Light Rain
4:03 PM 68.0 °F 66.2 °F 94% 29.80 in 10.0 mi SSW 5.8 mph - 0.00 in Rain Light Rain
4:58 PM 68.0 °F 66.0 °F 93% 29.80 in 10.0 mi SW 3.5 mph - 0.00 in   Overcast
5:58 PM 68.0 °F 66.0 °F 93% 29.81 in 10.0 mi Calm Calm - 0.00 in   Mostly Cloudy
6:11 PM 66.2 °F 64.4 °F 94% 29.82 in 10.0 mi Calm Calm - N/A   Scattered Clouds
6:58 PM 64.9 °F 64.0 °F 97% 29.83 in 4.0 mi Calm Calm - N/A   Clear
7:58 PM 64.9 °F 63.0 °F 93% 29.85 in 4.0 mi Calm Calm - N/A   Scattered Clouds
8:05 PM 64.4 °F 62.6 °F 94% 29.86 in 2.0 mi Calm Calm - N/A   Scattered Clouds
8:08 PM 64.4 °F 62.6 °F 94% 29.86 in 1.8 mi Calm Calm - N/A   Mostly Cloudy
8:17 PM 64.4 °F 62.6 °F 94% 29.86 in 0.5 mi Calm Calm - N/A Fog Fog
8:36 PM 64.4 °F 62.6 °F 94% 29.86 in 1.8 mi Calm Calm - N/A   Mostly Cloudy
8:41 PM 64.4 °F 62.6 °F 94% 29.87 in 2.5 mi Calm Calm - N/A   Mostly Cloudy
8:51 PM 62.6 °F 62.6 °F 100% 29.87 in 1.2 mi Calm Calm - N/A   Overcast
8:58 PM 63.0 °F 62.1 °F 97% 29.86 in 2.0 mi Calm Calm - N/A   Overcast
9:02 PM 64.4 °F 62.6 °F 94% 29.87 in 4.0 mi Calm Calm - N/A   Overcast
9:05 PM 64.4 °F 62.6 °F 94% 29.87 in 1.8 mi Calm Calm - N/A   Overcast
9:12 PM 64.4 °F 62.6 °F 94% 29.88 in 0.5 mi Calm Calm - N/A Fog Fog
9:39 PM 64.4 °F 62.6 °F 94% 29.89 in 1.8 mi Calm Calm - N/A   Overcast
9:43 PM 64.4 °F 62.6 °F 94% 29.89 in 3.0 mi Calm Calm - N/A   Overcast
9:58 PM 64.0 °F 63.0 °F 96% 29.88 in 7.0 mi Calm Calm - N/A   Mostly Cloudy
10:20 PM 62.6 °F 62.6 °F 100% 29.90 in 5.0 mi Calm Calm - N/A   Scattered Clouds
10:35 PM 62.6 °F 62.6 °F 100% 29.89 in 5.0 mi Calm Calm - N/A   Mostly Cloudy
10:45 PM 62.6 °F 60.8 °F 94% 29.90 in 4.0 mi Calm Calm - N/A   Scattered Clouds
10:58 PM 62.1 °F 61.0 °F 96% 29.89 in 5.0 mi Calm Calm - N/A   Partly Cloudy
11:58 PM 60.1 °F 57.9 °F 93% 29.89 in 10.0 mi North 3.5 mph - N/A   Clear